This is the latest recevied weather packets stored in our database for station/object DB8NZ-22. If no packets are shown the sender has not sent any weather packets the latest 10 day(s).
| Time | Temp. | Humidity | Pressure | Rain* | Wind** | Luminosity | Snow |
|---|---|---|---|---|---|---|---|
| 1777810749 | 29.44° C | 26% | 1014.4 hPa | - | - | - | - |
| 1777809849 | 28.89° C | 26% | 1014.5 hPa | - | - | - | - |
| 1777808948 | 28.33° C | 25% | 1014.7 hPa | - | - | - | - |
| 1777808048 | 28.89° C | 26% | 1014.7 hPa | - | - | - | - |
| 1777807148 | 27.22° C | 28% | 1014.9 hPa | - | - | - | - |
| 1777806248 | 27.22° C | 27% | 1015 hPa | - | - | - | - |
| 1777805348 | 27.22° C | 28% | 1015.2 hPa | - | - | - | - |
| 1777804447 | 26.67° C | 29% | 1015.4 hPa | - | - | - | - |
| 1777803547 | 26.11° C | 29% | 1015.5 hPa | - | - | - | - |
| 1777802647 | 26.11° C | 30% | 1015.6 hPa | - | - | - | - |
| 1777801747 | 25° C | 32% | 1015.8 hPa | - | - | - | - |
| 1777800847 | 24.44° C | 32% | 1016.1 hPa | - | - | - | - |
| 1777799947 | 23.89° C | 35% | 1016.1 hPa | - | - | - | - |
| 1777799047 | 22.78° C | 36% | 1016.2 hPa | - | - | - | - |
| 1777798146 | 22.22° C | 38% | 1016.2 hPa | - | - | - | - |
| 1777797246 | 21.67° C | 41% | 1016.5 hPa | - | - | - | - |
| 1777796346 | 20° C | 45% | 1016.6 hPa | - | - | - | - |
| 1777795446 | 19.44° C | 46% | 1016.6 hPa | - | - | - | - |
| 1777794546 | 18.89° C | 48% | 1016.7 hPa | - | - | - | - |
| 1777793646 | 17.78° C | 49% | 1016.6 hPa | - | - | - | - |
| 1777792745 | 16.67° C | 50% | 1016.5 hPa | - | - | - | - |
| 1777791845 | 16.67° C | 51% | 1016.6 hPa | - | - | - | - |
| 1777790945 | 15.56° C | 52% | 1016.6 hPa | - | - | - | - |
| 1777790045 | 14.44° C | 54% | 1016.5 hPa | - | - | - | - |
| 1777789145 | 14.44° C | 54% | 1016.5 hPa | - | - | - | - |
* Rain since midnight (hover to see other rain measurements)
** Current wind speed in m/s (hover to see current wind gust speed)